Worthington, MN

6:36 AM CST on December 08, 2016 (GMT -0600)
Worthington Municipal

Weather History for KOTG - April, 2014

Change the Weather History Date:

Tuesday, April 29, 2014

  Actual Average Record
Temperature  
Mean Temperature 38 °F -  
Max Temperature 42 °F 60 °F 87 °F (2007)
Min Temperature 35 °F 39 °F 26 °F (2008)
Degree Days  
Heating Degree Days 26    
Moisture  
Dew Point 31 °F    
Average Humidity 76    
Maximum Humidity 81    
Minimum Humidity 70    
Precipitation  
Precipitation 0.11 in - - ()
Sea Level Pressure  
Sea Level Pressure 29.69 in    
Wind  
Wind Speed 20 mph (NNE)    
Max Wind Speed 25 mph    
Max Gust Speed 34 mph    
Visibility 9 miles    
Events      
Averages and records for this station are not official NWS values.
T = Trace of Precipitation, MM = Missing Value Source: NWS Daily Summary

Daily Weather History Graph

Daily Weather History Graph

Search for Another Location

Airport or City:

Trip Planner

Search our weather history database for the weather conditions in past years. The results will help you decide how hot, cold, wet, or windy it might be!

Date:

Astronomy

Apr. 29, 2014 Rise Set
Actual Time 6:17 AM CDT 8:22 PM CDT
Civil Twilight 5:46 AM CDT 8:53 PM CDT
Nautical Twilight 5:07 AM CDT 9:32 PM CDT
Astronomical Twilight 4:25 AM CDT 10:14 PM CDT
Moon 6:36 AM CDT (4/29) 9:04 PM CDT (4/29)
Length of Visible Light 15h 07m
Length of Day
14h 04m
New Moon, 0% of the Moon is Illuminated
Apr 29
New Moon
May 6
First Quarter
May 14
Full
May 21
Last Quarter
May 28
New

Hourly Weather History & Observations

Time (CDT) Temp. Windchill Dew Point Humidity Pressure Visibility Wind Dir Wind Speed Gust Speed Precip Events Conditions
12:15 AM 42.8 °F 34.3 °F 35.6 °F 76% 29.57 in 7.0 mi NE 19.6 mph - N/A   Overcast
12:35 AM 42.8 °F 34.3 °F 35.6 °F 76% 29.58 in 4.0 mi NE 19.6 mph - N/A   Overcast
12:55 AM 42.8 °F 34.3 °F 35.6 °F 76% 29.58 in 5.0 mi NE 19.6 mph - 0.02 in   Overcast
1:15 AM 42.8 °F 33.5 °F 35.6 °F 76% 29.58 in 5.0 mi NE 23.0 mph - 0.01 in   Overcast
1:35 AM 41.0 °F 32.5 °F 35.6 °F 81% 29.58 in 4.0 mi NE 17.3 mph - 0.01 in   Overcast
1:55 AM 41.0 °F 31.6 °F 35.6 °F 81% 29.58 in 6.0 mi NE 20.7 mph - 0.01 in   Overcast
2:15 AM 41.0 °F 31.6 °F 35.6 °F 81% 29.58 in 6.0 mi NE 20.7 mph - 0.01 in   Overcast
2:35 AM 41.0 °F 31.9 °F 35.6 °F 81% 29.57 in 9.0 mi NE 19.6 mph 25.3 mph 0.02 in   Overcast
2:55 AM 41.0 °F 31.9 °F 35.6 °F 81% 29.57 in 8.0 mi NNE 19.6 mph - 0.02 in   Overcast
3:15 AM 41.0 °F 31.9 °F 33.8 °F 76% 29.57 in 10.0 mi NNE 19.6 mph - 0.01 in   Overcast
3:35 AM 39.2 °F 29.6 °F 33.8 °F 81% 29.57 in 9.0 mi NNE 19.6 mph 25.3 mph 0.02 in   Overcast
3:55 AM 39.2 °F 29.3 °F 33.8 °F 81% 29.57 in 9.0 mi NNE 20.7 mph 25.3 mph 0.03 in   Overcast
4:15 AM 39.2 °F 29.6 °F 33.8 °F 81% 29.57 in 10.0 mi NNE 19.6 mph 25.3 mph 0.01 in   Overcast
4:35 AM 39.2 °F 28.3 °F 33.8 °F 81% 29.58 in 9.0 mi NNE 25.3 mph 29.9 mph 0.01 in   Overcast
4:55 AM 39.2 °F 29.0 °F 32.0 °F 75% 29.58 in 10.0 mi NNE 21.9 mph 26.5 mph 0.01 in   Overcast
5:15 AM 39.2 °F 28.7 °F 32.0 °F 75% 29.59 in 6.0 mi NNE 23.0 mph - N/A   Overcast
5:35 AM 37.4 °F 27.2 °F 32.0 °F 81% 29.59 in 10.0 mi NNE 19.6 mph 26.5 mph N/A   Overcast
5:55 AM 37.4 °F 26.9 °F 30.2 °F 75% 29.60 in 9.0 mi NNE 20.7 mph 28.8 mph 0.01 in   Overcast
6:15 AM 37.4 °F 26.6 °F 30.2 °F 75% 29.60 in 9.0 mi NNE 21.9 mph 25.3 mph N/A   Overcast
6:35 AM 37.4 °F 28.2 °F 30.2 °F 75% 29.61 in 7.0 mi NNE 16.1 mph 21.9 mph N/A   Overcast
6:55 AM 37.4 °F 27.8 °F 30.2 °F 75% 29.61 in 9.0 mi NNE 17.3 mph 23.0 mph N/A   Overcast
7:15 AM 35.6 °F 25.2 °F 30.2 °F 81% 29.62 in 6.0 mi NNE 18.4 mph 23.0 mph N/A   Overcast
7:35 AM 37.4 °F 27.8 °F 30.2 °F 75% 29.62 in 3.0 mi North 17.3 mph 24.2 mph N/A   Overcast
7:55 AM 35.6 °F 24.8 °F 30.2 °F 81% 29.62 in 2.0 mi North 19.6 mph 25.3 mph N/A   Overcast
8:15 AM 35.6 °F 24.8 °F 28.4 °F 75% 29.62 in 4.0 mi NNE 19.6 mph 25.3 mph N/A   Overcast
8:35 AM 35.6 °F 25.2 °F 28.4 °F 75% 29.63 in 10.0 mi NNE 18.4 mph 26.5 mph N/A   Overcast
8:55 AM 35.6 °F 24.5 °F 28.4 °F 75% 29.64 in 10.0 mi NNE 20.7 mph 27.6 mph N/A   Overcast
9:15 AM 35.6 °F 24.5 °F 28.4 °F 75% 29.64 in 10.0 mi NNE 20.7 mph 28.8 mph N/A   Overcast
9:35 AM 35.6 °F 24.2 °F 28.4 °F 75% 29.64 in 10.0 mi NNE 21.9 mph 26.5 mph N/A   Overcast
9:55 AM 35.6 °F 24.8 °F 28.4 °F 75% 29.65 in 10.0 mi NNE 19.6 mph 31.1 mph N/A   Overcast
10:15 AM 35.6 °F 24.8 °F 30.2 °F 81% 29.65 in 10.0 mi NNE 19.6 mph 31.1 mph N/A   Overcast
10:35 AM 35.6 °F 24.8 °F 30.2 °F 81% 29.66 in 6.0 mi North 19.6 mph 26.5 mph N/A   Overcast
10:55 AM 37.4 °F 26.9 °F 30.2 °F 75% 29.66 in 10.0 mi North 20.7 mph 24.2 mph N/A   Overcast
11:15 AM 37.4 °F 26.4 °F 30.2 °F 75% 29.66 in 10.0 mi NNE 23.0 mph 29.9 mph N/A   Overcast
11:35 AM 37.4 °F 26.9 °F 30.2 °F 75% 29.66 in 10.0 mi NNE 20.7 mph 27.6 mph N/A   Overcast
11:55 AM 37.4 °F 26.6 °F 30.2 °F 75% 29.67 in 10.0 mi NNE 21.9 mph 27.6 mph N/A   Overcast
12:15 PM 37.4 °F 27.2 °F 30.2 °F 75% 29.67 in 10.0 mi NNE 19.6 mph 25.3 mph N/A   Overcast
12:35 PM 37.4 °F 26.9 °F 30.2 °F 75% 29.68 in 10.0 mi NNE 20.7 mph 25.3 mph N/A   Overcast
12:55 PM 37.4 °F 27.2 °F 30.2 °F 75% 29.68 in 10.0 mi North 19.6 mph 26.5 mph N/A   Overcast
1:15 PM 37.4 °F 27.5 °F 30.2 °F 75% 29.68 in 10.0 mi NNE 18.4 mph 27.6 mph N/A   Overcast
1:35 PM 37.4 °F 26.9 °F 30.2 °F 75% 29.68 in 10.0 mi NNE 20.7 mph 29.9 mph N/A   Overcast
1:55 PM 39.2 °F 29.8 °F 30.2 °F 70% 29.69 in 10.0 mi NNE 18.4 mph 33.4 mph N/A   Overcast
2:15 PM 37.4 °F 26.4 °F 30.2 °F 75% 29.70 in 8.0 mi NNE 23.0 mph 31.1 mph N/A   Overcast
2:35 PM 37.4 °F 26.4 °F 30.2 °F 75% 29.70 in 9.0 mi NNE 23.0 mph 28.8 mph N/A   Overcast
2:55 PM 37.4 °F 26.6 °F 30.2 °F 75% 29.71 in 10.0 mi North 21.9 mph 28.8 mph N/A   Overcast
3:15 PM 39.2 °F 29.6 °F 30.2 °F 70% 29.72 in 10.0 mi NNE 19.6 mph 32.2 mph N/A   Overcast
3:35 PM 37.4 °F 26.9 °F 30.2 °F 75% 29.73 in 10.0 mi NNE 20.7 mph 27.6 mph N/A   Overcast
4:15 PM 37.4 °F 26.9 °F 30.2 °F 75% 29.74 in 7.0 mi NNE 20.7 mph 28.8 mph N/A   Overcast
4:35 PM 37.4 °F 26.6 °F 30.2 °F 75% 29.75 in 7.0 mi NNE 21.9 mph 29.9 mph N/A   Overcast
4:55 PM 37.4 °F 26.9 °F 30.2 °F 75% 29.76 in 6.0 mi NNE 20.7 mph 29.9 mph 0.01 in   Overcast
5:15 PM 37.4 °F 27.2 °F 30.2 °F 75% 29.77 in 10.0 mi NNE 19.6 mph 28.8 mph N/A   Overcast
5:35 PM 37.4 °F 26.9 °F 30.2 °F 75% 29.78 in 10.0 mi NNE 20.7 mph 29.9 mph N/A   Mostly Cloudy
5:55 PM 37.4 °F 27.5 °F 30.2 °F 75% 29.78 in 10.0 mi North 18.4 mph 24.2 mph N/A   Overcast
6:15 PM 39.2 °F 29.8 °F 30.2 °F 70% 29.79 in 10.0 mi North 18.4 mph 24.2 mph N/A   Overcast
6:35 PM 39.2 °F 29.0 °F 32.0 °F 75% 29.80 in 10.0 mi North 21.9 mph 26.5 mph N/A   Overcast
6:55 PM 39.2 °F 29.8 °F 30.2 °F 70% 29.80 in 10.0 mi North 18.4 mph 24.2 mph N/A   Overcast
7:15 PM 39.2 °F 29.8 °F 32.0 °F 75% 29.81 in 10.0 mi North 18.4 mph - N/A   Overcast
7:35 PM 39.2 °F 29.3 °F 32.0 °F 75% 29.81 in 10.0 mi North 20.7 mph 28.8 mph N/A   Overcast
7:55 PM 39.2 °F 29.6 °F 32.0 °F 75% 29.81 in 10.0 mi North 19.6 mph 26.5 mph N/A   Overcast
8:15 PM 39.2 °F 29.3 °F 30.2 °F 70% 29.82 in 10.0 mi North 20.7 mph 27.6 mph N/A   Overcast
8:35 PM 39.2 °F 30.2 °F 32.0 °F 75% 29.83 in 10.0 mi North 17.3 mph - N/A   Overcast
8:55 PM 39.2 °F 29.3 °F 32.0 °F 75% 29.83 in 10.0 mi North 20.7 mph 29.9 mph N/A   Overcast
9:15 PM 39.2 °F 30.2 °F 32.0 °F 75% 29.83 in 10.0 mi North 17.3 mph - N/A   Overcast
9:35 PM 39.2 °F 30.8 °F 32.0 °F 75% 29.83 in 10.0 mi North 15.0 mph 23.0 mph N/A   Overcast
9:55 PM 39.2 °F 30.5 °F 32.0 °F 75% 29.83 in 10.0 mi North 16.1 mph - N/A   Mostly Cloudy
10:15 PM 39.2 °F 30.2 °F 30.2 °F 70% 29.83 in 10.0 mi North 17.3 mph - N/A   Mostly Cloudy
10:35 PM 39.2 °F 29.8 °F 32.0 °F 75% 29.83 in 10.0 mi North 18.4 mph 25.3 mph N/A   Mostly Cloudy
10:55 PM 39.2 °F 29.6 °F 32.0 °F 75% 29.83 in 10.0 mi North 19.6 mph 27.6 mph N/A   Overcast
11:15 PM 37.4 °F 26.6 °F 30.2 °F 75% 29.84 in 10.0 mi North 21.9 mph 34.5 mph N/A   Overcast
11:35 PM 37.4 °F 28.5 °F 30.2 °F 75% 29.83 in 10.0 mi North 15.0 mph - N/A   Scattered Clouds
11:55 PM 37.4 °F 26.9 °F 30.2 °F 75% 29.83 in 10.0 mi North 20.7 mph 24.2 mph N/A   Mostly Cloudy